This is the latest recevied weather packets stored in our database for station/object N3EYQ. If no packets are shown the sender has not sent any weather packets the latest 10 day(s).
| Time | Temp. | Humidity | Pressure | Rain* | Wind** | Luminosity | Snow |
|---|---|---|---|---|---|---|---|
| 1777939237 | 19.44° C | 38% | 1007.6 hPa | 0 mm | - | - | - |
| 1777938636 | 20° C | 38% | 1007.6 hPa | 0 mm | - | - | - |
| 1777938036 | 20.56° C | 37% | 1007.6 hPa | 0 mm | - | - | - |
| 1777937436 | 21.11° C | 35% | 1007.2 hPa | 0 mm | - | - | - |
| 1777936836 | 21.11° C | 35% | 1007.2 hPa | 0 mm | - | - | - |
| 1777936236 | 21.67° C | 34% | 1007.2 hPa | 0 mm | - | - | - |
| 1777935635 | 21.67° C | 34% | 1006.9 hPa | 0 mm | - | - | - |
| 1777935035 | 21.67° C | 34% | 1006.9 hPa | 0 mm | - | - | - |
| 1777934435 | 21.67° C | 33% | 1006.9 hPa | 0 mm | - | - | - |
| 1777933835 | 22.22° C | 33% | 1006.9 hPa | 0 mm | - | - | - |
| 1777933235 | 22.22° C | 32% | 1006.6 hPa | 0 mm | - | - | - |
| 1777932634 | 22.22° C | 32% | 1006.9 hPa | 0 mm | - | - | - |
| 1777932035 | 22.22° C | 31% | 1006.9 hPa | 0 mm | - | - | - |
| 1777931435 | 22.78° C | 30% | 1006.9 hPa | 0 mm | - | - | - |
| 1777930835 | 22.78° C | 31% | 1006.9 hPa | 0 mm | - | - | - |
| 1777930234 | 22.78° C | 30% | 1007.2 hPa | 0 mm | - | - | - |
| 1777929634 | 22.78° C | 31% | 1007.2 hPa | 0 mm | - | - | - |
| 1777929034 | 22.78° C | 30% | 1007.2 hPa | 0 mm | - | - | - |
| 1777928434 | 23.33° C | 30% | 1007.2 hPa | 0 mm | - | - | - |
| 1777927833 | 23.33° C | 30% | 1007.6 hPa | 0 mm | - | - | - |
| 1777927233 | 23.33° C | 29% | 1007.6 hPa | 0 mm | - | - | - |
| 1777926633 | 22.78° C | 30% | 1007.6 hPa | 0 mm | - | - | - |
| 1777926033 | 22.78° C | 30% | 1007.6 hPa | 0 mm | - | - | - |
| 1777925434 | 22.78° C | 30% | 1007.6 hPa | 0 mm | - | - | - |
| 1777924833 | 22.22° C | 31% | 1007.6 hPa | 0 mm | - | - | - |
* Rain latest hour (hover to see other rain measurements)
** Current wind speed in m/s (hover to see current wind gust speed)